User: anonymous   Login
Location: Mentone
(34.5413°N, 85.5351°W)
Time: 18:10:33
(UTC-05:00)
Language:

A-11 Canister half - Orbit

View from above orbital plane
View from above orbital plane
View from above satellite
View from above satellite

Ground track
Ground track

The orbit data is extracted from the following two-line orbital elements,

1 00053U 60009E   16121.76281817 -.00000084  00000-0  00000+0 0  9996
2 00053  47.2761 231.2832 0097653 302.4712  56.6666 12.17185055484801
Epoch (UTC): 30 April 2016 18:18:27
Eccentricity: 0.0097653
inclination: 47.2761°
perigee height: 1527 km
apogee height: 1683 km
right ascension of ascending node: 231.2832°
argument of perigee: 302.4712°
revolutions per day: 12.17185055
mean anomaly at epoch: 56.6666°
orbit number at epoch: 48480

The dashed part of the orbit path shows where the satellite is in the earth's shadow,  

DLR